This is the latest recevied weather packets stored in our database for station/object KQ4UWH. If no packets are shown the sender has not sent any weather packets the latest 10 day(s).
| Time | Temp. | Humidity | Pressure | Rain* | Wind** | Luminosity | Snow |
|---|---|---|---|---|---|---|---|
| 1777759341 | 20° C | 29% | 1239.7 hPa | 0 mm | - | 296 W/m² | - |
| 1777759038 | 20° C | 31% | 1239.7 hPa | 0 mm | - | 313 W/m² | - |
| 1777758735 | 20° C | 30% | 1239.7 hPa | 0 mm | - | 322 W/m² | - |
| 1777758433 | 20° C | 30% | 1239.7 hPa | 0 mm | - | 339 W/m² | - |
| 1777758130 | 19.44° C | 32% | 1239.7 hPa | 0 mm | - | 355 W/m² | - |
| 1777757827 | 20° C | 31% | 1239.7 hPa | 0 mm | - | 369 W/m² | - |
| 1777757524 | 20° C | 32% | 1239.7 hPa | 0 mm | - | 385 W/m² | - |
| 1777757222 | 20° C | 30% | 1239.7 hPa | 0 mm | - | 405 W/m² | - |
| 1777756920 | 20° C | 33% | 1239.7 hPa | 0 mm | - | 419 W/m² | - |
| 1777756616 | 20° C | 32% | 1239.7 hPa | 0 mm | - | 437 W/m² | - |
| 1777756313 | 20° C | 31% | 1239.7 hPa | 0 mm | - | 451 W/m² | - |
| 1777756010 | 20° C | 31% | 1239.7 hPa | 0 mm | - | 463 W/m² | - |
| 1777755707 | 20° C | 31% | 1239.7 hPa | 0 mm | - | 428 W/m² | - |
| 1777755404 | 20° C | 33% | 1239.7 hPa | 0 mm | - | 489 W/m² | - |
| 1777755101 | 20° C | 33% | 1239.7 hPa | 0 mm | - | 504 W/m² | - |
| 1777754798 | 20° C | 32% | 1239.7 hPa | 0 mm | - | 520 W/m² | - |
| 1777754495 | 20° C | 34% | 1239.7 hPa | 0 mm | - | 527 W/m² | - |
| 1777754192 | 20.56° C | 34% | 1239.7 hPa | 0 mm | - | 539 W/m² | - |
| 1777753890 | 20.56° C | 34% | 1239.7 hPa | 0 mm | - | 552 W/m² | - |
| 1777753585 | 20° C | 35% | 1239.7 hPa | 0 mm | - | 561 W/m² | - |
| 1777753283 | 20° C | 35% | 1239.7 hPa | 0 mm | - | 575 W/m² | - |
| 1777752979 | 20.56° C | 32% | 1239.7 hPa | 0 mm | - | 588 W/m² | - |
| 1777752676 | 20.56° C | 33% | 1239.7 hPa | 0 mm | - | 592 W/m² | - |
| 1777752372 | 20° C | 33% | 1239.7 hPa | 0 mm | - | 607 W/m² | - |
| 1777752070 | 20.56° C | 33% | 1239.7 hPa | 0 mm | - | 619 W/m² | - |
* Rain latest hour (hover to see other rain measurements)
** Current wind speed in m/s (hover to see current wind gust speed)